Hourly Weather Almazar

Today, 2 August, Monday

Time Temperature Precipitation Wind Pressure Humidity
00:00 +30°C° 0 mm 1 mps 724 mmHg 28%
01:00 +29°C° 0 mm 1 mps 724 mmHg 29%
02:00 +29°C° 0 mm 1 mps 724 mmHg 30%
03:00 +28°C° 0 mm 1 mps 724 mmHg 31%
04:00 +27°C° 0 mm 2 mps 725 mmHg 31%
05:00 +26°C° 0 mm 2 mps 725 mmHg 32%
06:00 +29°C° 0 mm 2 mps 725 mmHg 27%
07:00 +31°C° 0 mm 2 mps 726 mmHg 21%
08:00 +34°C° 0 mm 2 mps 726 mmHg 16%
09:00 +36°C° 0 mm 2 mps 726 mmHg 15%
10:00 +38°C° 0 mm 2 mps 726 mmHg 14%
11:00 +40°C° 0 mm 2 mps 726 mmHg 13%
12:00 +41°C° 0 mm 2 mps 725 mmHg 12%
13:00 +42°C° 0 mm 2 mps 725 mmHg 11%
14:00 +43°C° 0 mm 2 mps 725 mmHg 11%
15:00 +45°C° 0 mm 3 mps 724 mmHg 10%
16:00 +45°C° 0 mm 3 mps 724 mmHg 10%
17:00 +45°C° 0 mm 4 mps 724 mmHg 9%
18:00 +42°C° 0 mm 4 mps 724 mmHg 13%
19:00 +39°C° 0 mm 5 mps 724 mmHg 16%
20:00 +35°C° 0 mm 6 mps 724 mmHg 19%
21:00 +34°C° 0 mm 5 mps 724 mmHg 21%
22:00 +33°C° 0 mm 3 mps 724 mmHg 23%
23:00 +31°C° 0 mm 2 mps 724 mmHg 25%

Tomorrow, 3 August, Tuesday

Time Temperature Precipitation Wind Pressure Humidity
00:00 +31°C° 0 mm 2 mps 724 mmHg 26%
01:00 +30°C° 0 mm 1 mps 724 mmHg 27%
02:00 +30°C° 0 mm 1 mps 724 mmHg 28%
03:00 +29°C° 0 mm 1 mps 724 mmHg 29%
04:00 +29°C° 0 mm 1 mps 725 mmHg 30%
05:00 +28°C° 0 mm 2 mps 725 mmHg 30%
06:00 +30°C° 0 mm 2 mps 725 mmHg 26%
07:00 +32°C° 0 mm 2 mps 726 mmHg 21%
08:00 +35°C° 0 mm 3 mps 727 mmHg 17%
09:00 +37°C° 0 mm 3 mps 727 mmHg 15%
10:00 +39°C° 0 mm 3 mps 727 mmHg 13%
11:00 +42°C° 0 mm 3 mps 726 mmHg 10%
12:00 +43°C° 0 mm 3 mps 726 mmHg 10%
13:00 +44°C° 0 mm 3 mps 726 mmHg 9%
14:00 +45°C° 0 mm 2 mps 725 mmHg 8%
15:00 +45°C° 0 mm 3 mps 725 mmHg 8%
16:00 +45°C° 0 mm 4 mps 725 mmHg 8%
17:00 +46°C° 0 mm 5 mps 724 mmHg 8%
18:00 +42°C° 0 mm 6 mps 725 mmHg 12%
19:00 +39°C° 0 mm 7 mps 725 mmHg 16%
20:00 +36°C° 0 mm 7 mps 725 mmHg 20%
21:00 +35°C° 0 mm 6 mps 725 mmHg 21%
22:00 +34°C° 0 mm 5 mps 725 mmHg 22%
23:00 +33°C° 0 mm 3 mps 725 mmHg 24%

Day after tomorrow, 4 August, Wednesday

Time Temperature Precipitation Wind Pressure Humidity
00:00 +31°C° 0 mm 3 mps 725 mmHg 24%
01:00 +30°C° 0 mm 3 mps 725 mmHg 24%
02:00 +30°C° 0 mm 3 mps 725 mmHg 24%
03:00 +29°C° 0 mm 3 mps 726 mmHg 25%
04:00 +29°C° 0 mm 2 mps 726 mmHg 26%
05:00 +28°C° 0 mm 2 mps 726 mmHg 28%
06:00 +30°C° 0 mm 2 mps 727 mmHg 24%
07:00 +34°C° 0 mm 3 mps 727 mmHg 21%
08:00 +36°C° 0 mm 3 mps 728 mmHg 17%
09:00 +38°C° 0 mm 3 mps 727 mmHg 15%
10:00 +40°C° 0 mm 2 mps 727 mmHg 13%
11:00 +42°C° 0 mm 2 mps 727 mmHg 11%
12:00 +44°C° 0 mm 3 mps 727 mmHg 9%
13:00 +45°C° 0 mm 4 mps 726 mmHg 8%
14:00 +47°C° 0 mm 4 mps 726 mmHg 7%
15:00 +47°C° 0 mm 4 mps 725 mmHg 7%
16:00 +47°C° 0 mm 4 mps 725 mmHg 6%
17:00 +47°C° 0 mm 4 mps 725 mmHg 6%
18:00 +43°C° 0 mm 4 mps 725 mmHg 7%
19:00 +40°C° 0 mm 4 mps 725 mmHg 8%
20:00 +36°C° 0 mm 3 mps 725 mmHg 10%
21:00 +35°C° 0 mm 3 mps 725 mmHg 12%
22:00 +34°C° 0 mm 3 mps 725 mmHg 14%
23:00 +31°C° 0 mm 3 mps 726 mmHg 17%

5 August, Thursday

Time Temperature Precipitation Wind Pressure Humidity
00:00 +30°C° 0 mm 3 mps 726 mmHg 19%
01:00 +29°C° 0 mm 3 mps 726 mmHg 21%
02:00 +29°C° 0 mm 3 mps 726 mmHg 23%
03:00 +28°C° 0 mm 3 mps 726 mmHg 25%
04:00 +28°C° 0 mm 3 mps 727 mmHg 26%
05:00 +27°C° 0 mm 3 mps 727 mmHg 28%
06:00 +29°C° 0 mm 2 mps 727 mmHg 24%
07:00 +32°C° 0 mm 2 mps 727 mmHg 21%
08:00 +35°C° 0 mm 2 mps 728 mmHg 18%
09:00 +37°C° 0 mm 3 mps 727 mmHg 16%
10:00 +39°C° 0 mm 3 mps 727 mmHg 14%
11:00 +42°C° 0 mm 3 mps 727 mmHg 12%
12:00 +43°C° 0 mm 3 mps 726 mmHg 11%
13:00 +44°C° 0 mm 3 mps 726 mmHg 10%
14:00 +45°C° 0 mm 3 mps 725 mmHg 8%
15:00 +46°C° 0 mm 3 mps 725 mmHg 8%
16:00 +46°C° 0 mm 3 mps 725 mmHg 8%
17:00 +47°C° 0 mm 4 mps 724 mmHg 8%
18:00 +43°C° 0 mm 3 mps 724 mmHg 10%
19:00 +39°C° 0 mm 3 mps 724 mmHg 12%
20:00 +36°C° 0 mm 3 mps 724 mmHg 14%
21:00 +35°C° 0 mm 3 mps 724 mmHg 17%
22:00 +34°C° 0 mm 3 mps 724 mmHg 19%
23:00 +33°C° 0 mm 3 mps 724 mmHg 21%

6 August, Friday

Time Temperature Precipitation Wind Pressure Humidity
00:00 +31°C° 0 mm 3 mps 724 mmHg 23%
01:00 +30°C° 0 mm 3 mps 724 mmHg 24%
02:00 +29°C° 0 mm 3 mps 724 mmHg 25%
03:00 +28°C° 0.1 mm 3 mps 725 mmHg 27%
04:00 +27°C° 0.1 mm 3 mps 725 mmHg 30%
05:00 +27°C° 0.1 mm 3 mps 725 mmHg 32%
06:00 +29°C° 0 mm 3 mps 725 mmHg 28%
07:00 +32°C° 0 mm 4 mps 726 mmHg 24%
08:00 +34°C° 0 mm 4 mps 726 mmHg 20%
09:00 +36°C° 0 mm 4 mps 726 mmHg 18%
10:00 +38°C° 0 mm 4 mps 726 mmHg 15%
11:00 +42°C° 0 mm 4 mps 726 mmHg 13%
12:00 +43°C° 0 mm 4 mps 725 mmHg 12%
13:00 +44°C° 0 mm 4 mps 725 mmHg 10%
14:00 +46°C° 0 mm 3 mps 725 mmHg 9%
15:00 +45°C° 0 mm 4 mps 724 mmHg 9%
16:00 +46°C° 0 mm 5 mps 724 mmHg 9%
17:00 +46°C° 0 mm 5 mps 724 mmHg 9%
18:00 +42°C° 0 mm 5 mps 725 mmHg 12%
19:00 +39°C° 0 mm 5 mps 725 mmHg 15%
20:00 +36°C° 0 mm 5 mps 726 mmHg 18%
21:00 +35°C° 0 mm 5 mps 726 mmHg 20%
22:00 +34°C° 0 mm 5 mps 726 mmHg 22%
23:00 +33°C° 0 mm 4 mps 726 mmHg 24%

7 August, Saturday

Time Temperature Precipitation Wind Pressure Humidity
00:00 +32°C° 0 mm 4 mps 726 mmHg 25%
01:00 +30°C° 0 mm 3 mps 726 mmHg 25%
02:00 +28°C° 0 mm 3 mps 726 mmHg 26%
03:00 +28°C° 0 mm 3 mps 726 mmHg 26%
04:00 +27°C° 0 mm 2 mps 726 mmHg 27%
05:00 +26°C° 0 mm 2 mps 727 mmHg 27%
06:00 +28°C° 0 mm 2 mps 727 mmHg 23%
07:00 +31°C° 0 mm 3 mps 728 mmHg 20%
08:00 +34°C° 0 mm 3 mps 728 mmHg 16%
09:00 +36°C° 0 mm 3 mps 728 mmHg 15%
10:00 +39°C° 0 mm 3 mps 728 mmHg 13%
11:00 +42°C° 0 mm 3 mps 728 mmHg 11%
12:00 +43°C° 0 mm 3 mps 728 mmHg 10%
13:00 +44°C° 0 mm 3 mps 728 mmHg 10%
14:00 +45°C° 0 mm 2 mps 727 mmHg 9%
15:00 +45°C° 0 mm 3 mps 727 mmHg 8%
16:00 +45°C° 0 mm 3 mps 727 mmHg 8%
17:00 +46°C° 0 mm 3 mps 726 mmHg 7%
18:00 +43°C° 0 mm 3 mps 726 mmHg 9%
19:00 +38°C° 0 mm 3 mps 726 mmHg 10%
20:00 +35°C° 0 mm 3 mps 726 mmHg 12%
21:00 +34°C° 0 mm 2 mps 727 mmHg 13%
22:00 +32°C° 0 mm 2 mps 727 mmHg 14%
23:00 +31°C° 0 mm 2 mps 727 mmHg 15%
Show more